Location: The Saddle
(36.8333°N, 80.3417°W)
Time: 15:34:15
(UTC-05:00)

Explorer 11/Cluster Stage 4 - All Passes

Search period start: 30 January 2023 00:00
Search period end: 09 February 2023 00:00
Orbit: 466 x 1244 km, 28.8° (Epoch: 30 January)

Date Brightness Start Highest point End Pass type
(mag) Time Alt. Az. Time Alt. Az. Time Alt. Az.
30 Jan - 05:44:43 10° SSW 05:50:57 25° SSE 05:57:03 10° ESE visible
30 Jan - 07:31:58 10° WSW 07:39:27 41° S 07:46:15 10° ESE daylight
30 Jan - 09:20:44 10° WSW 09:28:03 44° S 09:34:18 10° ESE daylight
30 Jan - 11:10:20 10° WSW 11:16:13 29° SSW 11:21:14 10° SE daylight
31 Jan - 05:30:57 10° SSW 05:37:26 27° SSE 05:43:51 10° ESE visible
31 Jan - 07:18:22 10° WSW 07:25:57 43° S 07:33:00 10° ESE daylight
31 Jan - 09:07:10 10° WSW 09:14:37 44° S 09:21:04 10° ESE daylight
31 Jan - 10:56:50 10° WSW 11:02:49 28° SSW 11:07:58 10° SE daylight
01 Feb - 03:33:50 10° SSE 03:35:52 11° SE 03:37:55 10° SE visible
01 Feb - 05:17:16 10° SW 05:23:53 29° SSE 05:30:34 10° ESE visible
01 Feb - 07:04:48 10° WSW 07:12:28 45° S 07:19:41 10° ESE daylight
01 Feb - 08:53:38 10° WSW 09:01:09 44° S 09:07:48 10° ESE daylight
01 Feb - 10:43:21 10° WSW 10:49:22 27° SSW 10:54:38 10° SSE daylight
02 Feb - 03:19:22 10° S 03:22:19 13° SSE 03:25:23 10° SE visible
02 Feb - 05:03:39 10° SW 05:10:21 31° SSE 05:17:15 10° ESE visible
02 Feb - 06:51:16 10° WSW 06:58:56 46° S 07:06:21 10° ESE visible
02 Feb - 08:40:05 10° WSW 08:47:39 44° S 08:54:30 10° ESE daylight
02 Feb - 10:29:53 10° WSW 10:35:54 25° SSW 10:41:14 10° SSE daylight
03 Feb - 03:05:16 10° S 03:08:48 14° SSE 03:12:28 10° ESE visible
03 Feb - 04:50:05 10° SW 04:56:47 33° SSE 05:03:52 10° E visible
03 Feb - 06:37:45 10° WSW 06:45:24 47° S 06:52:57 10° ESE visible
03 Feb - 08:26:34 10° WSW 08:34:09 43° S 08:41:07 10° ESE daylight
03 Feb - 10:16:25 10° WSW 10:22:24 24° SSW 10:27:46 10° SSE daylight
04 Feb - 02:51:22 10° S 02:55:15 15° SSE 02:59:22 10° ESE visible
04 Feb - 04:36:34 10° SW 04:43:14 35° SSE 04:50:25 10° E visible
04 Feb - 06:24:16 10° WSW 06:31:52 48° S 06:39:31 10° ESE visible
04 Feb - 08:13:04 10° WSW 08:20:36 42° SSW 08:27:42 10° SE daylight
04 Feb - 10:03:01 10° WSW 10:08:52 23° SSW 10:14:13 10° SSE daylight
05 Feb - 02:37:37 10° S 02:41:42 16° SSE 02:46:09 10° ESE visible
05 Feb - 04:23:05 10° SW 04:29:41 36° SSE 04:36:55 10° E visible
05 Feb - 06:10:49 10° WSW 06:18:19 48° S 06:26:03 10° ESE visible
05 Feb - 07:59:35 10° W 08:07:03 40° SSW 08:14:13 10° SE daylight
05 Feb - 09:49:39 10° WSW 09:55:18 21° SSW 10:00:36 10° SSE daylight
06 Feb - 02:23:57 10° S 02:28:11 18° SSE 02:32:50 10° ESE visible
06 Feb - 04:09:39 10° SW 04:16:09 37° SSE 04:23:24 10° E visible
06 Feb - 05:57:24 10° WSW 06:04:46 48° S 06:12:31 10° ESE visible
06 Feb - 07:46:08 10° W 07:53:29 38° SSW 08:00:41 10° SE daylight
06 Feb - 09:36:19 10° WSW 09:41:44 20° SSW 09:46:52 10° SSE daylight
07 Feb - 02:10:23 10° SSW 02:14:40 19° SSE 02:19:27 10° ESE visible
07 Feb - 03:56:17 10° SW 04:02:37 39° SSE 04:09:50 10° ESE visible
07 Feb - 05:44:00 10° WSW 05:51:13 47° S 05:58:58 10° ESE visible
07 Feb - 07:32:43 10° W 07:39:54 37° SSW 07:47:05 10° SE daylight
07 Feb - 09:23:04 10° WSW 09:28:08 18° SSW 09:33:02 10° S daylight
08 Feb - 01:56:52 10° SSW 02:01:09 20° SSE 02:06:01 10° ESE night (unlit)
08 Feb - 03:42:56 10° SW 03:49:06 39° SSE 03:56:15 10° ESE visible
08 Feb - 05:30:39 10° WSW 05:37:39 46° S 05:45:21 10° ESE visible
08 Feb - 07:19:20 10° WSW 07:26:19 34° SSW 07:33:27 10° SE daylight
08 Feb - 09:09:56 10° WSW 09:14:33 16° SSW 09:19:05 10° S daylight
